Regional Weather Roundup
Issued by NWS

Home | Current Version | Previous Version | Text Only | Print | Product List | Glossary On
Versions: 1 2 3 4 5 6 7 8 9 10 11 12 13 14 15 16 17 18 19 20 21 22 23 24 25 26 27 28 29 30 31 32 33 34 35 36 37 38 39 40 41 42 43 44 45 46 47 48 49 50
605
ASUS45 KPSR 252010
RWRAZ

ARIZONA HOURLY REGIONAL WEATHER ROUNDUP
NATIONAL WEATHER SERVICE PHOENIX AZ
100 PM MST THU AUG 25 2016

NOTE: FAIR INDICATES FEW OR NO CLOUDS BELOW 12,000 FEET WITH NO
SIGNIFICANT WEATHER AND/OR OBSTRUCTIONS TO VISIBILITY.

AZZ001>003-036-252100-
NORTHWEST ARIZONA

CITY           SKY/WX    TMP DP  RH WIND       PRES   REMARKS
BULLHEAD CITY  SUNNY    102  46  15 S9        29.82F
KINGMAN        SUNNY     92  46  20 S20G25    30.03F
$$

AZZ004>008-015-016-018-252100-
NORTH CENTRAL ARIZONA

CITY           SKY/WX    TMP DP  RH WIND       PRES   REMARKS
GRAND CANYON   CLOUDY    59  52  77 E7        30.26F
PRESCOTT       PTSUNNY   79  49  34 SW9       30.16F
FLAGSTAFF      MOSUNNY   74  45  35 SW15G25   30.27F
PAYSON         MOSUNNY   81  48  32 W9G20     30.20F
PAGE           PTSUNNY   81  43  26 W7        30.04F
$$

AZZ009>014-017-252100-
NORTHEAST ARIZONA

CITY           SKY/WX    TMP DP  RH WIND       PRES   REMARKS
WINSLOW        CLOUDY    77  47  34 W8        30.15S
SAINT JOHNS    PTSUNNY   80  39  23 S6        30.19F
WINDOW ROCK    LGT RAIN  62  46  55 SE17G25   30.28R
SHOW LOW       PTSUNNY   72  39  30 W8        30.25F
$$

AZZ023-252100-
GREATER PHOENIX AREA

CITY           SKY/WX    TMP DP  RH WIND       PRES   REMARKS
PHOENIX        MOSUNNY   99  52  20 VRB6      29.88F
BUCKEYE        MOSUNNY   95  48  20 CALM      29.91F
GLENDALE       MOSUNNY  100  50  18 SW10      29.91F
LUKE AFB       MOSUNNY   97  50  20 SW10      29.88F
DEER VALLEY    SUNNY     96  52  22 S9        29.91F
SCOTTSDALE     SUNNY     96  50  20 VRB6      29.93F
MESA-FALCON    SUNNY    N/A N/A N/A SW7       29.89F
MESA-GATEWAY   MOSUNNY   95  52  23 NW6       29.92F
CHANDLER       MOSUNNY   97  50  20 S6        29.91F
$$

AZZ027-028-252100-
SOUTHWEST MARICOPA COUNTY AND PINAL COUNTY

CITY           SKY/WX    TMP DP  RH WIND       PRES   REMARKS
CASA GRANDE    SUNNY     97  48  19 W5        29.95F
GILA BEND      MOSUNNY  100  51  19 SW9       29.86F
$$

AZZ503-504-507>509-252100-
SOUTHEAST ARIZONA

CITY           SKY/WX    TMP DP  RH WIND       PRES   REMARKS
TUCSON         SUNNY     94  50  22 VRB7      30.02F
DAVIS-MONTHAN  SUNNY     92  51  24 VRB7      30.00F
RYAN FIELD     SUNNY     93  50  22 CALM      30.01
NOGALES        MOSUNNY   88  53  30 MISG      30.10F
SIERRA VISTA   PTSUNNY   84  49  29 SW12      30.16F
DOUGLAS        MOSUNNY   87  50  27 VRB3      30.11F
SAFFORD        SUNNY     93  45  19 W7        30.01F
$$

AZZ020-021-025-026-031-252100-
SOUTHWEST ARIZONA

CITY           SKY/WX    TMP DP  RH WIND       PRES   REMARKS
YUMA           SUNNY    103  62  26 S17G23    29.82F HX 105
$$

CAZ031-033-041-043-047-048-061-252100-
SOUTHERN CALIFORNIA

CITY           SKY/WX    TMP DP  RH WIND       PRES   REMARKS
DOWNTOWN L.A.  SUNNY     80  61  52 VRB3      29.91F
L.A. AIRPORT   MOSUNNY   73  60  63 SW13      29.94F
SAN DIEGO      MOSUNNY   72  60  66 SW8       29.96F
BURBANK        SUNNY     80  58  46 S10       29.91F
ONTARIO        SUNNY     86  54  33 S5        29.91F
RIVERSIDE      SUNNY     86  57  37 VRB3      29.91F
PALM SPRINGS   SUNNY     97  55  24 SE7       29.84F
EL CENTRO NAS  MOSUNNY  102  54  20 VRB3      29.80F HX 100
IMPERIAL       SUNNY    104  56  20 S7        29.78F HX 103
BLYTHE         SUNNY    102  58  23 S15G28    29.82F HX 102
NEEDLES        MOSUNNY  105  46  13 SW12      29.83F HX 101
$$

NVZ020-UTZ003-252100-
SOUTHERN NEVADA-UTAH

CITY           SKY/WX    TMP DP  RH WIND       PRES   REMARKS
LAS VEGAS      MOSUNNY  100  30   8 S12G18    29.85F
SALT LAKE CITY PTSUNNY   77  31  18 NW13      30.07F
$$

NMZ009-TXZ055-252100-
NEW MEXICO-WEST TEXAS

CITY           SKY/WX    TMP DP  RH WIND       PRES   REMARKS
ALBUQUERQUE    CLOUDY    79  45  29 CALM      30.20F
EL PASO        PTSUNNY   83  55  38 S3        30.10F
$$


........................KEY........................
SKY/WX - SKY CONDITION/WEATHER
TMP    - TEMPERATURE IN FAHRENHEIT
DP     - DEW POINT IN FAHRENHEIT
RH     - RELATIVE HUMIDITY IN PERCENT
WIND   - DIRECTION AND SPEED IN MILES PER HOUR (MPH)
VRB    - VARIABLE WIND DIRECTION
PRES   - MEAN SEA LEVEL PRESSURE IN INCHES OF MERCURY
         F - FALLING PRESSURE   R - RISING PRESSURE
         S - STEADY PRESSURE
VSB    - VISIBILITY IN MILES
HX     - HEAT INDEX IN FAHRENHEIT
WCI    - WIND CHILL INDEX IN FAHRENHEIT
TC     - TEMPERATURE IN CELSIUS WHICH IS ALSO KNOWN AS
         TEMPERATURE IN CENTIGRADE
AFB    - AIR FORCE BASE
         LUKE AFB IS LUKE AIR FORCE BASE
         DAVIS-MONTHAN IS DAVIS-MONTHAN AIR FORCE BASE
NAS    - NAVAL AIR STATION
         EL CENTRO NAS IS EL CENTRO NAVAL AIR STATION
N/A    - NOT AVAILABLE





USA.gov is the U.S. government's official web portal to all federal, state and local government web resources and services.